QPF
0.00 0.00 0.01 0.02 0.02 0.02 0.01 0.01 0.01 0.01 0.00 0.00 0.00 0.00 0.00 0.01 0.01 0.01 0.01 0.01 0.01 0.01 0.01 0.01 0.01 0.01 0.01 0.01 0.01 0.01 0.01 0.01 0.01 0.01 0.01 0.01 0.01 0.01 0.01 0.01 0.01 0.01 0.01
0.00 0.00 0.01 0.02 0.02 0.01 0.01 0.01 0.00 0.01 0.00 0.00 0.00 0.00 0.00 0.01 0.01 0.01 0.01 0.01 0.01 0.01 0.01 0.01 0.00 0.00 0.00 0.00 0.00 0.00 0.00 0.00 0.00 0.00 0.01 0.01 0.01 0.01 0.01 0.01 0.01 0.01 0.01
0.00 0.00 0.00 0.01 0.01 0.01 0.01 0.01 0.00 0.01 0.01 0.01 0.01 0.00 0.00 0.01 0.01 0.01 0.01 0.01 0.01 0.01 0.01 0.01 0.00 0.00 0.00 0.00 0.00 0.00 0.00 0.00 0.00 0.00 0.00 0.01 0.01 0.01 0.01 0.01 0.01 0.01 0.01
0.00 0.00 0.00 0.00 0.00 0.00 0.00 0.00 0.01 0.01 0.01 0.02 0.01 0.00 0.01 0.01 0.01 0.01 0.01 0.00 0.00 0.00 0.01 0.00 0.00 0.00 0.00 0.00 0.00 0.00 0.00 0.00 0.00 0.00 0.00 0.00 0.01 0.01 0.01 0.01 0.01 0.00 0.00
0.00 0.00 0.00 0.00 0.00 0.00 0.00 0.00 0.01 0.01 0.01 0.01 0.01 0.01 0.01 0.00 0.01 0.01 0.01 0.00 0.00 0.00 0.00 0.00 0.00 0.00 0.00 0.00 0.00 0.00 0.00 0.00 0.00 0.00 0.00 0.00 0.01 0.01 0.01 0.00 0.00 0.00 0.00
0.00 0.00 0.00 0.00 0.00 0.00 0.00 0.00 0.00 0.01 0.01 0.01 0.00 0.00 0.00 0.00 0.00 0.00 0.00 0.00 0.00 0.00 0.00 0.00 0.00 0.00 0.00 0.00 0.00 0.00 0.00 0.00 0.00 0.00 0.00 0.00 0.00 0.00 0.00 0.00 0.00 0.00 0.00
0.00 0.00 0.00 0.00 0.00 0.00 0.00 0.00 0.00 0.00 0.01 0.01 0.00 0.00 0.00 0.00 0.00 0.00 0.00 0.00 0.00 0.00 0.00 0.00 0.00 0.00 0.00 0.00 0.00 0.00 0.00 0.00 0.00 0.00 0.00 0.00 0.00 0.00 0.00 0.00 0.00 0.00 0.00
0.00 0.00 0.00 0.00 0.00 0.00 0.00 0.00 0.00 0.00 0.01 0.01 0.00 0.00 0.00 0.00 0.00 0.00 0.00 0.00 0.00 0.00 0.00 0.00 0.00 0.00 0.00 0.00 0.00 0.00 0.00 0.00 0.00 0.00 0.00 0.00 0.00 0.01 0.01 0.00 0.00 0.00 0.00
0.00 0.00 0.00 0.00 0.00 0.00 0.00 0.00 0.00 0.00 0.00 0.01 0.00 0.00 0.00 0.00 0.00 0.00 0.00 0.00 0.00 0.00 0.00 0.00 0.00 0.00 0.00 0.00 0.00 0.00 0.00 0.00 0.00 0.00 0.00 0.00 0.00 0.01 0.01 0.00 0.00 0.00 0.00
0.00 0.00 0.00 0.00 0.00 0.00 0.00 0.00 0.00 0.00 0.00 0.00 0.00 0.00 0.00 0.00 0.00 0.00 0.00 0.00 0.00 0.00 0.00 0.00 0.00 0.00 0.00 0.00 0.00 0.00 0.00 0.00 0.00 0.00 0.00 0.00 0.00 0.01 0.01 0.00 0.00 0.00 0.00
0.01 0.00 0.00 0.00 0.00 0.00 0.00 0.00 0.00 0.00 0.00 0.00 0.00 0.00 0.00 0.00 0.00 0.00 0.00 0.00 0.00 0.00 0.00 0.00 0.00 0.00 0.00 0.00 0.00 0.00 0.00 0.00 0.00 0.00 0.00 0.00 0.00 0.01 0.01 0.00 0.00 0.00 0.00
0.00 0.01 0.00 0.00 0.00 0.00 0.00 0.00 0.00 0.00 0.00 0.00 0.00 0.00 0.00 0.00 0.00 0.00 0.00 0.00 0.00 0.00 0.00 0.00 0.00 0.00 0.00 0.00 0.00 0.00 0.00 0.00 0.00 0.00 0.00 0.00 0.00 0.01 0.01 0.00 0.00 0.00 0.00
0.00 0.00 0.00 0.00 0.00 0.00 0.00 0.00 0.00 0.00 0.00 0.00 0.00 0.00 0.00 0.00 0.00 0.00 0.00 0.00 0.00 0.00 0.00 0.00 0.00 0.00 0.00 0.00 0.00 0.00 0.00 0.00 0.00 0.00 0.00 0.00 0.00 0.00 0.01 0.00 0.00 0.00 0.00
0.00 0.00 0.00 0.00 0.00 0.00 0.00 0.00 0.00 0.00 0.00 0.00 0.00 0.00 0.00 0.00 0.00 0.00 0.00 0.00 0.00 0.00 0.00 0.00 0.00 0.00 0.00 0.00 0.00 0.00 0.00 0.00 0.00 0.00 0.00 0.00 0.00 0.00 0.01 0.00 0.00 0.01 0.01
0.00 0.00 0.00 0.00 0.00 0.00 0.00 0.00 0.00 0.00 0.00 0.00 0.00 0.00 0.00 0.00 0.00 0.00 0.00 0.00 0.00 0.00 0.00 0.00 0.00 0.00 0.00 0.00 0.00 0.00 0.00 0.00 0.00 0.00 0.00 0.00 0.00 0.00 0.01 0.01 0.01 0.01 0.01
0.00 0.00 0.00 0.00 0.00 0.00 0.00 0.00 0.00 0.00 0.00 0.00 0.00 0.00 0.00 0.00 0.00 0.00 0.00 0.00 0.00 0.00 0.00 0.00 0.00 0.00 0.00 0.00 0.00 0.00 0.00 0.00 0.00 0.00 0.00 0.00 0.00 0.00 0.00 0.00 0.01 0.01 0.01
0.00 0.00 0.00 0.00 0.00 0.00 0.00 0.00 0.00 0.00 0.00 0.00 0.00 0.00 0.00 0.00 0.00 0.00 0.00 0.00 0.00 0.00 0.00 0.00 0.00 0.00 0.00 0.00 0.00 0.00 0.00 0.00 0.00 0.00 0.00 0.00 0.00 0.00 0.00 0.00 0.00 0.00 0.00
0.00 0.00 0.00 0.00 0.00 0.00 0.00 0.00 0.00 0.00 0.00 0.00 0.00 0.00 0.00 0.00 0.00 0.00 0.00 0.00 0.00 0.00 0.00 0.00 0.00 0.00 0.00 0.00 0.00 0.00 0.00 0.00 0.00 0.00 0.00 0.00 0.00 0.00 0.00 0.00 0.00 0.00 0.00
0.00 0.00 0.00 0.00 0.00 0.00 0.00 0.00 0.00 0.00 0.00 0.00 0.00 0.00 0.00 0.00 0.00 0.00 0.00 0.00 0.00 0.00 0.00 0.00 0.00 0.00 0.00 0.00 0.00 0.00 0.00 0.00 0.00 0.00 0.00 0.00 0.00 0.00 0.00 0.00 0.00 0.00 0.00
0.00 0.00 0.00 0.00 0.00 0.00 0.00 0.00 0.00 0.00 0.00 0.00 0.00 0.00 0.00 0.00 0.00 0.00 0.00 0.00 0.00 0.00 0.00 0.00 0.00 0.00 0.00 0.00 0.00 0.00 0.00 0.00 0.00 0.00 0.00 0.00 0.00 0.00 0.00 0.00 0.00 0.00 0.00
0.00 0.00 0.00 0.00 0.00 0.00 0.00 0.00 0.00 0.00 0.00 0.00 0.00 0.00 0.00 0.00 0.00 0.00 0.00 0.00 0.00 0.01 0.00 0.00 0.00 0.00 0.00 0.00 0.00 0.00 0.00 0.00 0.00 0.00 0.00 0.00 0.00 0.00 0.00 0.00 0.00 0.00 0.00
0.00 0.00 0.00 0.00 0.00 0.00 0.00 0.00 0.00 0.00 0.00 0.00 0.00 0.00 0.00 0.00 0.00 0.00 0.00 0.00 0.00 0.01 0.01 0.00 0.00 0.01 0.01 0.00 0.01 0.01 0.00 0.00 0.00 0.00 0.00 0.00 0.00 0.00 0.00 0.00 0.00 0.00 0.00
0.00 0.00 0.00 0.00 0.00 0.00 0.00 0.00 0.00 0.00 0.00 0.00 0.00 0.00 0.00 0.00 0.00 0.00 0.00 0.00 0.00 0.01 0.01 0.00 0.01 0.01 0.01 0.01 0.01 0.01 0.01 0.00 0.00 0.00 0.00 0.00 0.00 0.00 0.00 0.00 0.00 0.00 0.00
0.00 0.00 0.00 0.00 0.00 0.00 0.00 0.00 0.00 0.00 0.00 0.00 0.00 0.00 0.00 0.00 0.00 0.00 0.00 0.00 0.00 0.00 0.00 0.00 0.00 0.01 0.01 0.01 0.01 0.01 0.01 0.01 0.01 0.01 0.00 0.00 0.00 0.00 0.00 0.00 0.00 0.00 0.00
0.00 0.00 0.00 0.00 0.00 0.00 0.00 0.00 0.00 0.00 0.00 0.00 0.00 0.00 0.00 0.00 0.00 0.00 0.00 0.00 0.00 0.00 0.00 0.00 0.01 0.01 0.01 0.01 0.01 0.01 0.01 0.01 0.02 0.02 0.01 0.00 0.00 0.00 0.00 0.00 0.00 0.00 0.00
0.00 0.00 0.00 0.00 0.00 0.00 0.00 0.00 0.00 0.00 0.00 0.00 0.00 0.00 0.00 0.00 0.00 0.00 0.00 0.00 0.00 0.00 0.00 0.00 0.01 0.01 0.01 0.01 0.01 0.02 0.02 0.01 0.01 0.01 0.01 0.01 0.00 0.00 0.00 0.00 0.00 0.00 0.00
MSLP
1019.47 1019.65 1019.90 1020.22 1020.54 1020.85 1021.09 1021.24 1021.30 1021.29 1021.24 1021.18 1021.15 1021.18 1021.28 1021.42 1021.59 1021.75 1021.88 1021.97 1022.01 1022.03 1022.05 1022.08 1022.14 1022.23 1022.33 1022.42 1022.47 1022.48 1022.44 1022.36 1022.25 1022.15 1022.08 1022.05 1022.07 1022.12 1022.19 1022.25 1022.28 1022.26 1022.20
1019.31 1019.54 1019.84 1020.20 1020.58 1020.92 1021.20 1021.38 1021.47 1021.47 1021.43 1021.39 1021.39 1021.45 1021.56 1021.73 1021.91 1022.08 1022.20 1022.28 1022.31 1022.32 1022.33 1022.36 1022.43 1022.54 1022.66 1022.77 1022.84 1022.85 1022.80 1022.70 1022.59 1022.49 1022.42 1022.41 1022.46 1022.53 1022.62 1022.69 1022.72 1022.69 1022.62
1019.22 1019.46 1019.78 1020.16 1020.55 1020.92 1021.23 1021.45 1021.58 1021.63 1021.63 1021.63 1021.66 1021.75 1021.89 1022.06 1022.24 1022.40 1022.51 1022.57 1022.59 1022.59 1022.59 1022.63 1022.71 1022.83 1022.96 1023.07 1023.13 1023.14 1023.08 1022.97 1022.86 1022.76 1022.71 1022.72 1022.78 1022.88 1022.99 1023.06 1023.10 1023.07 1022.99
1019.22 1019.46 1019.76 1020.12 1020.51 1020.90 1021.23 1021.49 1021.67 1021.78 1021.84 1021.88 1021.95 1022.06 1022.21 1022.38 1022.56 1022.70 1022.80 1022.84 1022.86 1022.85 1022.87 1022.92 1023.01 1023.13 1023.25 1023.35 1023.40 1023.38 1023.30 1023.19 1023.07 1022.98 1022.95 1022.98 1023.07 1023.18 1023.30 1023.39 1023.43 1023.41 1023.33
1019.33 1019.54 1019.81 1020.14 1020.51 1020.89 1021.25 1021.54 1021.77 1021.92 1022.03 1022.13 1022.23 1022.36 1022.51 1022.68 1022.84 1022.97 1023.06 1023.10 1023.12 1023.14 1023.17 1023.24 1023.34 1023.46 1023.57 1023.65 1023.67 1023.62 1023.52 1023.39 1023.27 1023.19 1023.18 1023.23 1023.34 1023.47 1023.60 1023.69 1023.73 1023.72 1023.66
1019.51 1019.69 1019.93 1020.22 1020.57 1020.94 1021.30 1021.62 1021.88 1022.07 1022.22 1022.35 1022.47 1022.61 1022.76 1022.92 1023.07 1023.20 1023.29 1023.35 1023.40 1023.44 1023.51 1023.60 1023.72 1023.83 1023.93 1023.97 1023.96 1023.88 1023.75 1023.61 1023.49 1023.42 1023.42 1023.49 1023.61 1023.75 1023.88 1023.98 1024.02 1024.01 1023.96
1019.73 1019.89 1020.10 1020.36 1020.69 1021.04 1021.39 1021.72 1022.00 1022.22 1022.39 1022.54 1022.67 1022.82 1022.97 1023.12 1023.27 1023.40 1023.51 1023.60 1023.68 1023.77 1023.88 1024.00 1024.12 1024.24 1024.31 1024.32 1024.26 1024.15 1024.00 1023.85 1023.73 1023.68 1023.69 1023.77 1023.90 1024.04 1024.16 1024.25 1024.29 1024.29 1024.26
1019.94 1020.09 1020.27 1020.52 1020.82 1021.16 1021.51 1021.83 1022.11 1022.34 1022.53 1022.68 1022.82 1022.97 1023.12 1023.27 1023.43 1023.57 1023.71 1023.83 1023.96 1024.09 1024.24 1024.38 1024.52 1024.63 1024.67 1024.66 1024.57 1024.43 1024.26 1024.10 1023.99 1023.95 1023.98 1024.07 1024.19 1024.32 1024.43 1024.50 1024.54 1024.54 1024.53
1020.08 1020.23 1020.41 1020.65 1020.94 1021.26 1021.60 1021.91 1022.19 1022.42 1022.61 1022.77 1022.92 1023.07 1023.22 1023.39 1023.56 1023.72 1023.88 1024.04 1024.20 1024.37 1024.54 1024.71 1024.85 1024.94 1024.97 1024.93 1024.82 1024.66 1024.49 1024.33 1024.23 1024.21 1024.25 1024.35 1024.47 1024.59 1024.68 1024.73 1024.75 1024.74 1024.74
1020.13 1020.28 1020.46 1020.71 1020.99 1021.31 1021.63 1021.93 1022.20 1022.42 1022.61 1022.78 1022.94 1023.11 1023.28 1023.46 1023.65 1023.83 1024.01 1024.19 1024.38 1024.56 1024.75 1024.92 1025.06 1025.14 1025.16 1025.10 1024.98 1024.81 1024.65 1024.51 1024.42 1024.42 1024.47 1024.58 1024.70 1024.80 1024.88 1024.91 1024.90 1024.89 1024.89
1020.07 1020.23 1020.43 1020.68 1020.97 1021.28 1021.58 1021.87 1022.12 1022.34 1022.53 1022.71 1022.90 1023.08 1023.28 1023.49 1023.69 1023.89 1024.08 1024.26 1024.45 1024.64 1024.82 1024.98 1025.11 1025.19 1025.20 1025.14 1025.02 1024.87 1024.72 1024.60 1024.54 1024.55 1024.62 1024.73 1024.84 1024.94 1025.00 1025.01 1024.99 1024.97 1024.97
1019.89 1020.07 1020.30 1020.56 1020.85 1021.15 1021.45 1021.71 1021.95 1022.16 1022.36 1022.56 1022.77 1022.99 1023.22 1023.45 1023.67 1023.87 1024.06 1024.24 1024.41 1024.58 1024.75 1024.90 1025.02 1025.10 1025.12 1025.07 1024.96 1024.83 1024.70 1024.60 1024.56 1024.58 1024.66 1024.78 1024.89 1024.98 1025.03 1025.03 1025.00 1024.97 1024.96
1019.62 1019.82 1020.07 1020.36 1020.65 1020.95 1021.22 1021.47 1021.69 1021.90 1022.10 1022.32 1022.56 1022.82 1023.08 1023.34 1023.57 1023.78 1023.95 1024.11 1024.26 1024.41 1024.55 1024.70 1024.82 1024.90 1024.93 1024.90 1024.82 1024.72 1024.61 1024.52 1024.49 1024.52 1024.60 1024.71 1024.82 1024.91 1024.96 1024.96 1024.93 1024.89 1024.87
1019.24 1019.48 1019.77 1020.07 1020.38 1020.66 1020.92 1021.15 1021.35 1021.56 1021.77 1022.01 1022.28 1022.57 1022.86 1023.14 1023.39 1023.59 1023.76 1023.90 1024.02 1024.14 1024.27 1024.41 1024.53 1024.63 1024.69 1024.69 1024.64 1024.55 1024.46 1024.38 1024.34 1024.35 1024.42 1024.52 1024.63 1024.72 1024.77 1024.78 1024.76 1024.72 1024.70
1018.76 1019.05 1019.37 1019.70 1020.02 1020.31 1020.55 1020.77 1020.96 1021.15 1021.37 1021.63 1021.92 1022.24 1022.56 1022.86 1023.12 1023.33 1023.48 1023.60 1023.71 1023.82 1023.94 1024.08 1024.22 1024.34 1024.43 1024.46 1024.43 1024.36 1024.26 1024.17 1024.10 1024.09 1024.13 1024.21 1024.31 1024.40 1024.47 1024.50 1024.49 1024.47 1024.45
1018.17 1018.51 1018.88 1019.24 1019.58 1019.87 1020.12 1020.33 1020.51 1020.71 1020.93 1021.20 1021.50 1021.84 1022.18 1022.50 1022.77 1022.98 1023.13 1023.25 1023.34 1023.45 1023.58 1023.73 1023.90 1024.05 1024.17 1024.22 1024.21 1024.14 1024.03 1023.90 1023.80 1023.74 1023.74 1023.78 1023.87 1023.96 1024.05 1024.10 1024.12 1024.12 1024.11
1017.47 1017.86 1018.27 1018.67 1019.04 1019.35 1019.61 1019.83 1020.02 1020.22 1020.44 1020.72 1021.03 1021.38 1021.73 1022.06 1022.34 1022.55 1022.71 1022.83 1022.94 1023.06 1023.20 1023.38 1023.57 1023.75 1023.89 1023.96 1023.96 1023.88 1023.74 1023.57 1023.41 1023.30 1023.24 1023.26 1023.32 1023.42 1023.52 1023.60 1023.66 1023.68 1023.68
1016.68 1017.10 1017.55 1017.98 1018.39 1018.74 1019.02 1019.26 1019.47 1019.68 1019.92 1020.19 1020.51 1020.86 1021.21 1021.54 1021.82 1022.05 1022.23 1022.37 1022.49 1022.63 1022.80 1023.00 1023.22 1023.42 1023.58 1023.66 1023.65 1023.55 1023.38 1023.17 1022.95 1022.78 1022.67 1022.64 1022.69 1022.78 1022.89 1023.00 1023.09 1023.14 1023.16
1015.83 1016.26 1016.72 1017.18 1017.62 1018.01 1018.34 1018.62 1018.87 1019.10 1019.35 1019.63 1019.94 1020.28 1020.62 1020.95 1021.24 1021.48 1021.68 1021.84 1021.99 1022.16 1022.36 1022.58 1022.81 1023.03 1023.20 1023.29 1023.27 1023.15 1022.95 1022.70 1022.44 1022.21 1022.06 1021.99 1022.00 1022.09 1022.21 1022.34 1022.44 1022.51 1022.54
1014.94 1015.35 1015.80 1016.28 1016.75 1017.18 1017.57 1017.90 1018.19 1018.46 1018.72 1019.00 1019.30 1019.63 1019.96 1020.28 1020.57 1020.83 1021.05 1021.25 1021.43 1021.63 1021.85 1022.09 1022.34 1022.57 1022.74 1022.82 1022.81 1022.68 1022.46 1022.18 1021.89 1021.62 1021.43 1021.33 1021.32 1021.38 1021.50 1021.63 1021.74 1021.82 1021.86
1014.07 1014.42 1014.84 1015.31 1015.79 1016.27 1016.71 1017.10 1017.44 1017.74 1018.03 1018.31 1018.60 1018.90 1019.22 1019.53 1019.83 1020.10 1020.35 1020.58 1020.81 1021.03 1021.28 1021.54 1021.79 1022.02 1022.20 1022.29 1022.27 1022.14 1021.93 1021.64 1021.34 1021.06 1020.84 1020.71 1020.67 1020.71 1020.80 1020.91 1021.02 1021.10 1021.14
1013.23 1013.50 1013.86 1014.30 1014.79 1015.29 1015.78 1016.22 1016.61 1016.95 1017.25 1017.53 1017.80 1018.09 1018.39 1018.70 1019.00 1019.30 1019.58 1019.85 1020.11 1020.37 1020.64 1020.91 1021.18 1021.41 1021.59 1021.68 1021.68 1021.58 1021.38 1021.12 1020.83 1020.55 1020.32 1020.16 1020.09 1020.09 1020.14 1020.22 1020.31 1020.37 1020.39
1012.42 1012.59 1012.87 1013.26 1013.74 1014.25 1014.77 1015.25 1015.68 1016.05 1016.36 1016.64 1016.90 1017.18 1017.47 1017.77 1018.10 1018.42 1018.74 1019.05 1019.36 1019.66 1019.95 1020.23 1020.50 1020.74 1020.93 1021.04 1021.07 1021.00 1020.85 1020.62 1020.36 1020.10 1019.87 1019.69 1019.58 1019.54 1019.54 1019.57 1019.61 1019.64 1019.63
1011.60 1011.67 1011.87 1012.21 1012.65 1013.16 1013.69 1014.20 1014.65 1015.03 1015.35 1015.63 1015.89 1016.15 1016.44 1016.76 1017.10 1017.46 1017.83 1018.19 1018.54 1018.88 1019.20 1019.50 1019.78 1020.03 1020.23 1020.37 1020.43 1020.41 1020.31 1020.14 1019.93 1019.70 1019.47 1019.28 1019.13 1019.03 1018.97 1018.94 1018.93 1018.91 1018.88
1010.74 1010.73 1010.85 1011.13 1011.53 1012.02 1012.54 1013.05 1013.50 1013.89 1014.21 1014.48 1014.73 1015.00 1015.30 1015.64 1016.02 1016.43 1016.86 1017.27 1017.67 1018.05 1018.39 1018.71 1019.01 1019.27 1019.49 1019.66 1019.76 1019.80 1019.76 1019.65 1019.49 1019.28 1019.07 1018.86 1018.68 1018.52 1018.40 1018.31 1018.23 1018.17 1018.11
1009.81 1009.72 1009.78 1009.99 1010.35 1010.80 1011.30 1011.79 1012.23 1012.61 1012.92 1013.19 1013.45 1013.73 1014.06 1014.43 1014.86 1015.33 1015.81 1016.28 1016.73 1017.14 1017.52 1017.86 1018.16 1018.44 1018.68 1018.88 1019.03 1019.12 1019.14 1019.10 1018.98 1018.81 1018.61 1018.39 1018.17 1017.97 1017.79 1017.63 1017.50 1017.40 1017.31
Thickness
5711 5708 5703 5701 5699 5698 5697 5696 5695 5694 5693 5692 5692 5691 5691 5691 5690 5690 5690 5690 5690 5691 5691 5690 5690 5690 5690 5689 5689 5689 5689 5689 5689 5689 5689 5688 5687 5686 5685 5685 5685 5683 5681
5714 5709 5703 5701 5699 5698 5697 5695 5694 5693 5692 5692 5691 5690 5690 5689 5689 5689 5689 5689 5689 5689 5689 5688 5688 5687 5687 5687 5686 5686 5686 5686 5686 5686 5686 5685 5684 5683 5682 5682 5681 5680 5678
5713 5709 5704 5701 5699 5698 5696 5695 5694 5692 5692 5691 5690 5689 5689 5688 5688 5687 5687 5687 5687 5687 5686 5686 5685 5685 5684 5684 5684 5684 5683 5683 5683 5683 5684 5684 5682 5680 5679 5678 5677 5676 5675
5712 5709 5705 5701 5699 5697 5696 5694 5693 5692 5691 5690 5689 5688 5687 5687 5686 5686 5685 5685 5685 5685 5684 5684 5683 5683 5682 5682 5681 5681 5681 5680 5680 5681 5683 5682 5680 5677 5676 5675 5674 5673 5671
5711 5708 5704 5701 5699 5697 5695 5694 5692 5691 5690 5689 5688 5687 5686 5685 5684 5684 5683 5683 5683 5682 5682 5681 5681 5680 5680 5679 5679 5678 5678 5677 5678 5679 5679 5678 5677 5674 5673 5672 5670 5669 5668
5710 5707 5703 5700 5698 5696 5694 5693 5691 5690 5689 5688 5686 5685 5684 5683 5683 5682 5681 5681 5681 5680 5680 5679 5679 5678 5677 5677 5677 5676 5676 5675 5677 5677 5677 5676 5674 5671 5670 5668 5667 5666 5664
5709 5705 5702 5698 5697 5695 5693 5692 5690 5689 5688 5686 5685 5684 5683 5682 5681 5680 5680 5679 5679 5678 5678 5677 5676 5676 5675 5675 5674 5674 5673 5673 5675 5674 5674 5673 5670 5668 5667 5666 5664 5663 5661
5707 5704 5701 5697 5695 5693 5692 5691 5689 5688 5687 5685 5684 5683 5682 5681 5680 5679 5678 5677 5677 5676 5676 5675 5674 5674 5673 5672 5672 5671 5671 5671 5671 5672 5671 5670 5667 5666 5665 5663 5662 5660 5658
5706 5703 5700 5697 5694 5692 5691 5689 5688 5686 5685 5684 5683 5681 5680 5679 5678 5677 5676 5676 5675 5674 5674 5673 5672 5671 5671 5670 5669 5669 5669 5668 5671 5670 5668 5667 5665 5664 5663 5661 5659 5658 5656
5703 5702 5699 5697 5695 5693 5690 5688 5686 5685 5684 5683 5681 5680 5679 5678 5677 5676 5675 5674 5673 5672 5671 5671 5670 5669 5668 5668 5667 5667 5666 5666 5668 5667 5667 5665 5663 5661 5660 5659 5657 5655 5653
5700 5700 5699 5697 5695 5693 5691 5688 5686 5684 5683 5681 5680 5679 5677 5677 5676 5675 5674 5672 5671 5670 5669 5669 5668 5667 5666 5666 5665 5665 5665 5666 5666 5665 5664 5662 5661 5659 5658 5657 5655 5653 5651
5699 5699 5698 5696 5694 5692 5690 5688 5686 5684 5683 5682 5681 5679 5678 5677 5676 5674 5672 5671 5670 5669 5668 5667 5666 5665 5665 5665 5664 5663 5664 5664 5664 5663 5663 5660 5659 5658 5657 5655 5653 5652 5649
5701 5699 5698 5696 5694 5692 5690 5688 5687 5685 5684 5682 5681 5679 5678 5676 5675 5673 5672 5671 5669 5668 5667 5666 5665 5665 5665 5664 5664 5663 5663 5662 5662 5662 5661 5659 5657 5656 5655 5653 5652 5650 5648
5700 5699 5698 5696 5694 5692 5690 5689 5687 5685 5684 5683 5681 5679 5678 5677 5675 5674 5673 5672 5670 5669 5667 5667 5665 5665 5663 5662 5662 5661 5661 5660 5660 5660 5659 5657 5655 5654 5653 5652 5650 5649 5647
5699 5699 5698 5696 5695 5692 5690 5689 5687 5686 5684 5683 5681 5679 5678 5677 5676 5674 5673 5671 5670 5669 5667 5666 5665 5664 5663 5662 5661 5660 5660 5659 5659 5658 5658 5656 5654 5653 5651 5650 5649 5647 5646
5699 5699 5699 5697 5695 5693 5691 5690 5688 5687 5685 5683 5682 5680 5678 5677 5676 5674 5673 5671 5670 5668 5667 5665 5665 5663 5662 5661 5660 5659 5659 5658 5658 5657 5656 5656 5654 5652 5651 5649 5648 5646 5645
5700 5699 5698 5697 5695 5693 5691 5690 5688 5687 5685 5684 5682 5680 5678 5677 5675 5674 5673 5671 5670 5668 5666 5664 5663 5662 5661 5660 5660 5659 5658 5657 5657 5656 5655 5654 5654 5652 5650 5649 5647 5645 5643
5699 5698 5698 5695 5694 5693 5691 5690 5688 5687 5685 5684 5682 5681 5679 5677 5675 5673 5672 5671 5669 5667 5665 5663 5662 5661 5660 5659 5659 5659 5658 5657 5656 5655 5654 5653 5653 5652 5651 5648 5646 5644 5642
5698 5697 5696 5695 5694 5693 5691 5689 5688 5686 5685 5684 5682 5681 5679 5677 5675 5673 5672 5671 5668 5666 5664 5662 5660 5659 5658 5657 5657 5656 5656 5656 5656 5655 5654 5653 5652 5651 5649 5648 5645 5643 5640
5695 5695 5694 5693 5692 5691 5689 5687 5686 5685 5684 5683 5682 5681 5678 5676 5674 5672 5671 5669 5666 5664 5662 5660 5658 5656 5655 5654 5653 5653 5654 5655 5655 5655 5654 5653 5652 5650 5648 5646 5643 5642 5639
5691 5691 5691 5691 5690 5688 5687 5685 5684 5684 5683 5682 5682 5680 5678 5675 5673 5671 5669 5667 5665 5663 5661 5659 5656 5653 5651 5649 5647 5650 5655 5656 5657 5656 5655 5653 5652 5649 5646 5643 5641 5639 5638
5687 5687 5688 5688 5688 5686 5686 5685 5685 5684 5683 5682 5681 5678 5676 5673 5671 5669 5667 5666 5663 5661 5659 5656 5653 5651 5649 5646 5644 5644 5648 5655 5658 5655 5653 5651 5649 5646 5644 5641 5639 5636 5635
5682 5683 5684 5685 5684 5684 5682 5680 5680 5679 5679 5678 5678 5676 5674 5671 5669 5667 5665 5663 5661 5658 5657 5654 5651 5648 5646 5644 5641 5639 5639 5645 5650 5653 5650 5647 5644 5642 5641 5638 5636 5633 5631
5677 5677 5678 5679 5679 5678 5677 5676 5675 5675 5676 5678 5676 5674 5671 5668 5665 5663 5661 5659 5657 5655 5653 5651 5648 5645 5642 5641 5638 5636 5635 5637 5634 5641 5645 5642 5639 5637 5636 5634 5632 5630 5627
5669 5669 5670 5672 5673 5673 5672 5671 5670 5670 5672 5672 5671 5668 5666 5664 5661 5658 5656 5654 5652 5650 5648 5646 5643 5640 5638 5636 5634 5632 5629 5627 5626 5625 5632 5636 5635 5633 5631 5629 5628 5626 5624
5660 5661 5662 5663 5664 5665 5665 5665 5664 5665 5665 5663 5663 5662 5660 5658 5656 5653 5651 5648 5646 5644 5643 5640 5638 5635 5633 5631 5630 5627 5624 5623 5623 5620 5622 5626 5627 5630 5628 5625 5623 5621 5619